{"data":{"norad_id":55930,"epoch":"2026-05-25T03:26:44.702880Z","epoch_age_seconds":62941,"freshness":"FRESH","line1":"1 55930U 23037S   26145.14357295  .00006019  00000+0  51175-3 0  9998","line2":"2 55930  70.0015  91.6389 0003392 268.4477  91.6294 14.98336559175432","mean_motion":14.98336559,"eccentricity":0.0003392,"inclination_deg":70.0015,"raan_deg":91.6389,"arg_perigee_deg":268.4477,"mean_anomaly_deg":91.6294,"bstar":0.00051175,"rev_number":17543,"period_min":96.10657841527,"perigee_km":569.67810930338,"apogee_km":574.39310640054,"semimajor_km":6950.172607852,"source":"CELESTRAK","updated_at":"2026-05-25T13:38:17.913374Z"}}